Location: Agadir Irigdalene
(31.2522°N, 8.7797°W)
Time: 16:29:37
(UTC+00:00)

Cosmos 1782 - Pass Details

Date: 01 December 2020
Orbit: 537 x 551 km, 82.5° (Epoch: 26 January)

Event Time Altitude Azimuth Distance (km) Brightness Sun altitude
Rises 17:50:16 0° 174° (S) 2,675 6.6 -4.4°
Reaches altitude 10° 17:52:27 10° 168° (SSE) 1,789 5.6 -4.8°
Maximum altitude 17:56:15 49° 93° (E) 697 3.0 -5.5°
Drops below altitude 10° 18:00:06 10° 18° (NNE) 1,808 5.1 -6.3°
Sets 18:02:18 0° 13° (NNE) 2,707 6.0 -6.7°
